Regional Weather Roundup
Issued by NWS

Home | Current Version | Previous Version | Text Only | Print | Product List | Glossary Off
Versions: 1 2 3 4 5 6 7 8 9 10 11 12 13 14 15 16 17 18 19 20 21 22 23 24 25 26 27 28 29 30 31 32 33 34 35 36 37 38 39 40 41 42 43 44 45 46 47 48 49 50

000
ASUS43 KMKX 272111
RWRWI

WISCONSIN REGIONAL WEATHER ROUNDUP
NATIONAL WEATHER SERVICE MILWAUKEE/SULLIVAN WI
400 PM CDT WED AUG 27 2014

NOTE: "FAIR" INDICATES FEW OR NO CLOUDS BELOW 12,000 FEET WITH NO
SIGNIFICANT WEATHER AND/OR OBSTRUCTIONS TO VISIBILITY.

WIZ001-002-006>008-014>016-023>028-272200-
NORTHWEST WISCONSIN

CITY           SKY/WX    TMP DP  RH WIND       PRES   REMARKS
SUPERIOR ARPT  MOSUNNY   70  51  50 CALM      30.16F
ASHLAND        MOSUNNY   67  49  52 VRB3      30.20S
HAYWARD        SUNNY     69  47  45 VRB5      30.19F
SIREN          CLOUDY    70  52  53 W5        30.19F
RICE LAKE      MOSUNNY   70  52  53 N6        30.20F
LADYSMITH      SUNNY     71  50  48 NW5       30.20F
EAU CLAIRE     MOSUNNY   75  55  49 N5        30.16F
MENOMONIE      CLEAR     74  54  49 CALM      30.17F
NEW RICHMOND   SUNNY     73  54  50 CALM      30.17F
OSCEOLA        SUNNY     73  56  56 CALM      30.19F
$$

WIZ003>005-009-010-017-018-272200-
NORTH CENTRAL WISCONSIN

CITY           SKY/WX    TMP DP  RH WIND       PRES   REMARKS
WOODRUFF       SUNNY     69  47  44 W5        30.19F
RHINELANDER    MOSUNNY   70  48  45 W8        30.19F
EAGLE RIVER    SUNNY     68  45  43 NW6       30.18S
LAND O LAKES   SUNNY     69  46  43 W8        30.19F
PHILLIPS       SUNNY     68  49  50 W5        30.18F
TOMAHAWK       SUNNY     69  49  49 NW7       30.19S
MEDFORD        SUNNY     69  52  53 NW8       30.18F
MERRILL        SUNNY     71  53  52 NW6       30.17F
$$

WIZ029-030-035-036-043>047-272200-
CENTRAL WISCONSIN

CITY           SKY/WX    TMP DP  RH WIND       PRES   REMARKS
WAUSAU         SUNNY     72  51  47 W7        30.15F
MOSINEE        MOSUNNY   72  55  56 W7        30.18
MARSHFIELD     PTSUNNY   73  55  53 VRB6      30.17S
STEVENS POINT  PTSUNNY   71  55  56 W6        30.18R
WAUPACA        PTSUNNY   76  55  48 W3        30.16F
WAUTOMA        PTSUNNY   76  57  51 NW6       30.16F
WISC RAPIDS    PTSUNNY   73  57  57 CALM      30.17F
CAMP DOUGLAS   PTSUNNY   77  59  53 VRB5      30.16F
$$

WIZ011>013-019>022-031-037>040-048>050-272200-
NORTHEAST WISCONSIN

CITY           SKY/WX    TMP DP  RH WIND       PRES   REMARKS
ANTIGO         MOSUNNY   69  53  54 NW8       30.18S
STURGEON BAY   MOSUNNY   70  54  56 NW7       30.17F
GREEN BAY      CLOUDY    73  56  54 CALM      30.16F
MANITOWOC      PTSUNNY   67  56  67 SE9       30.17S
APPLETON       PTSUNNY   70  54  56 CALM      30.17F
CLINTONVILLE   PTSUNNY   72  54  53 CALM      30.15F
OSHKOSH        PTSUNNY   73  57  57 E6        30.16F
$$

WIZ032>034-041-042-053>061-272200-
SOUTHWEST WISCONSIN

CITY           SKY/WX    TMP DP  RH WIND       PRES   REMARKS
LA CROSSE      PTSUNNY   78  58  49 W6        30.15F
SPARTA         PTSUNNY   76  54  46 W3        30.16F
VIROQUA        CLOUDY    72  58  59 NW3       30.18F
BOSCOBEL       CLOUDY    78  57  48 N5        30.16F
PRAIRIE DU CHI CLOUDY    75  56  53 CALM      30.15F
PLATTEVILLE    FAIR      75  59  58 CALM      30.17S
$$

WIZ056-057-062-063-064-067-068-272200-
SOUTH CENTRAL WISCONSIN

CITY           SKY/WX    TMP DP  RH WIND       PRES   REMARKS
BARABOO/DELLS  CLOUDY    73  55  52 W5        30.16F
LONE ROCK      CLOUDY    80  59  48 VRB5      30.16F HX  81
WATERTOWN      CLOUDY    74  59  59 NW6       30.15F
MADISON        PTSUNNY   76  58  53 NW5       30.16F
MIDDLETON      MOCLDY    76  58  52 CALM      30.16F
MONROE         CLOUDY    73  59  60 CALM      30.15F
JANESVILLE     MOSUNNY   77  55  47 N5        30.14F
$$

WIZ051-052-058>065-066-070>072-272200-
SOUTHEAST WISCONSIN

CITY           SKY/WX    TMP DP  RH WIND       PRES   REMARKS
MILWAUKEE      PTSUNNY   72  62  71 NE8       30.16F
WAUKESHA       CLOUDY    72  61  68 E7        30.17F
MILWAUKEE/TIMM PTSUNNY   72  59  64 NE6       30.17F
RACINE         CLOUDY    71  61  70 NE8       30.17F
BURLINGTON     CLOUDY    74  62  67 NE3       30.15S
KENOSHA        CLOUDY    72  63  73 E8        30.16S
FOND DU LAC    PTSUNNY   74  55  51 N6        30.17S
SHEBOYGAN      PTSUNNY   71  56  58 CALM      30.16F
WEST BEND      PTSUNNY   70  59  68 SE8       30.16F
JUNEAU         PTSUNNY   72  57  58 N3        30.18S
$$

LSZ147-162-272200-
LAKE SUPERIOR

STATION/POSITION TIME  TEMP    WIND        PRES    WAVE
                       AIR SEA DIR/SP/G            HT/PER
                 (UTC) (F)     (DEG/KT/KT) (MB)    (FT/S)
W MID LAKE BUOY  2050   58 56  220/  8/  8 1022.1F   1/ 3
DEVILS ISLAND    2100   64     210/  3/  5 1021.9F
PORT WING        2000   67     320/  3/  6 1022.4F
SAXON HARBOR     1900   64      20/  4/  6 1023.4F
$$

LMZ867-665-643>646-272200-
LAKE MICHIGAN

STATION/POSITION TIME  TEMP    WIND        PRES    WAVE
                       AIR SEA DIR/SP/G            HT/PER
                 (UTC) (F)     (DEG/KT/KT) (MB)    (FT/S)
N MID LAKE BUOY  2050   63 67  250/  2/  2 1021.5F   0
NORTHPORT PIER   2000   69     340/  4/  8 1021.3F
SISTER BAY       1926             CALM       N/A
KEWAUNEE LAKESHO 2000   67     140/  3/  5 1020.9F
SHEBOYGAN LAKESH 2100   66 68  120/  6/  7 1021.6F
ATWATER BUOY     2100   68      70/  6/  8 1022.3F
MILWAUKEE LAKESH 2000   68      60/  7/  8   N/A
S MID LAKE BUOY  2050   68 71  350/  6/  8 1021.2F   1
KENOSHA   LAKESH 2100   69      50/  7/  8 1020.7S
$$

TC  - TEMPERATURE IN CELSIUS
VSB - VISIBILITY IN STATUTE MILES
WCI - WIND CHILL INDEX
HX  - HEAT INDEX




USA.gov is the U.S. government's official web portal to all federal, state and local government web resources and services.